sat.trackr.live / text

‹ back to catalog

SUPERVIEW NEO-2 04

NORAD 62080 · 2024-218C

PAYLOAD ACTIVE UNKNOWN

§ Identity

Operator
Country
PRC
Launch date
2024-11-24
Launch site
JSC
Launch vehicle
Mass (kg)
RCS (m²)

External: N2YO · Heavens-Above · Gunter

§ Orbital elements

Epoch: 2026-09-22T13:35:12.087168Z

Period
94.75 min
Inclination
97.4388°
Eccentricity
0.0001395
Mean motion
15.19719194 rev/d
Perigee alt
505.7 km
Apogee alt
507.6 km
Semi-major
6,884.8 km
B*
1.1812e-6
RAAN
271.5192°
Arg perigee
95.9431°
Mean anomaly
264.1963°
Rev number
10,123

§ Raw data

SUPERVIEW NEO-2 041 62080U 24218C   26265.56611212 -.00000042  00000+0  11812-5 0  99922 62080  97.4388 271.5192 0001395  95.9431 264.1963 15.19719194101238

JSON: /api/v1/satellites/62080 · /tle

For live sub-satellite position, see the globe view (requires WebGL).

§ Visibility from observer

Set your observer location to see the next 7 days of passes ≥ 10°. The values pass through the URL so the page stays shareable.

No JS? Fill the form by hand. The geolocation button needs JavaScript.